Weather History for Hatteras, NC

Change the Weather History Date:

Monday, August 26, 2013

  Actual Average Record
Temperature  
Mean Temperature 75 °F 78 °F  
Max Temperature 83 °F 83 °F 92 °F (1975)
Min Temperature 67 °F 73 °F 60 °F (1986)
Degree Days  
Heating Degree Days 0 0  
Month to date heating degree days 0 0  
Since 1 June heating degree days 0 3  
Since 1 July heating degree days 0 0  
Cooling Degree Days 10 13  
Month to date cooling degree days 367 355  
Year to date cooling degree days 1438 1243  
Since 1 June cooling degree days 1276 1100  
Growing Degree Days 25 (Base 50)    
Moisture  
Dew Point 62 °F    
Average Humidity 62    
Maximum Humidity 78    
Minimum Humidity 46    
Precipitation  
Precipitation 0.00 in 0.25 in 3.67 in (2011)
Month to date precipitation 3.36 5.70  
Year to date precipitation 30.79 35.96  
Snow  
Snow 0.00 in - - ()
Month to date snowfall 0.0  
Since 1 July snowfall 0.0  
Snow Depth 0.00 in    
Sea Level Pressure  
Sea Level Pressure 30.21 in    
Wind  
Wind Speed 5 mph (NE)    
Max Wind Speed 10 mph    
Max Gust Speed 15 mph    
Visibility 10 miles    
Events      
T = Trace of Precipitation, MM = Missing Value Source: NWS Daily Summary

Daily Weather History Graph

Daily Weather History Graph

Search for Another Location

Airport:

Trip Planner

Search our weather history database for the weather conditions in past years. The results will help you decide how hot, cold, wet, or windy it might be!

Date:

Astronomy

Aug. 26, 2013 Rise Set
Actual Time 6:30 AM EDT 7:37 PM EDT
Civil Twilight 6:04 AM EDT 8:03 PM EDT
Nautical Twilight 5:33 AM EDT 8:34 PM EDT
Astronomical Twilight 5:00 AM EDT 9:06 PM EDT
Moon 11:01 PM EDT (8/26) 12:14 PM EDT (8/26)
Length of Visible Light 13h 58m
Length of Day
13h 06m
Waning Gibbous, 67% of the Moon is Illuminated
Aug 26
Waning Gibbous
Aug 28
Last Quarter
Sep 5
New
Sep 12
First Quarter
Sep 19
Full

Hourly Weather History & Observations

Time (EDT) Temp. Heat Index Dew Point Humidity Pressure Visibility Wind Dir Wind Speed Gust Speed Precip Events Conditions
12:51 AM 73.0 °F - 61.0 °F 66% 30.27 in 10.0 mi NE 6.9 mph - N/A   Clear
1:51 AM 73.0 °F - 61.0 °F 66% 30.27 in 10.0 mi NE 6.9 mph - N/A   Clear
2:51 AM 73.0 °F - 60.1 °F 64% 30.25 in 10.0 mi NNE 8.1 mph - N/A   Clear
3:51 AM 73.0 °F - 60.1 °F 64% 30.25 in 10.0 mi NE 9.2 mph - N/A   Clear
4:51 AM 72.0 °F - 61.0 °F 68% 30.25 in 10.0 mi NE 5.8 mph - N/A   Clear
5:51 AM 71.1 °F - 61.0 °F 70% 30.24 in 10.0 mi NE 5.8 mph - N/A   Clear
6:51 AM 71.1 °F - 62.1 °F 73% 30.25 in 10.0 mi NE 4.6 mph - N/A   Clear
7:51 AM 73.9 °F - 63.0 °F 68% 30.25 in 10.0 mi NE 5.8 mph - N/A   Clear
8:51 AM 77.0 °F - 63.0 °F 62% 30.25 in 10.0 mi NE 5.8 mph - N/A   Clear
9:51 AM 79.0 °F - 64.0 °F 60% 30.26 in 10.0 mi Variable 5.8 mph - N/A   Clear
10:51 AM 79.0 °F - 64.0 °F 60% 30.26 in 10.0 mi NE 8.1 mph - N/A   Clear
11:51 AM 81.0 °F 82.5 °F 64.0 °F 56% 30.25 in 10.0 mi NNE 9.2 mph - N/A   Clear
12:51 PM 81.0 °F 82.2 °F 63.0 °F 54% 30.25 in 10.0 mi Variable 6.9 mph - N/A   Clear
1:51 PM 81.0 °F 81.9 °F 62.1 °F 52% 30.22 in 10.0 mi Variable 6.9 mph - N/A   Clear
2:51 PM 82.0 °F 82.7 °F 61.0 °F 49% 30.19 in 10.0 mi Variable 4.6 mph - N/A   Clear
3:51 PM 82.0 °F 82.7 °F 61.0 °F 49% 30.18 in 10.0 mi Variable 4.6 mph - N/A   Clear
4:51 PM 82.9 °F 82.8 °F 59.0 °F 44% 30.15 in 10.0 mi Calm Calm - N/A   Clear
5:51 PM 81.0 °F 81.3 °F 59.0 °F 47% 30.14 in 10.0 mi Calm Calm - N/A   Clear
6:51 PM 78.1 °F - 61.0 °F 56% 30.13 in 10.0 mi Calm Calm - N/A   Clear
7:51 PM 71.1 °F - 62.1 °F 73% 30.14 in 10.0 mi Calm Calm - N/A   Clear
8:51 PM 68.0 °F - 61.0 °F 78% 30.14 in 10.0 mi Calm Calm - N/A   Clear
9:51 PM 70.0 °F - 62.1 °F 76% 30.13 in 10.0 mi SSW 3.5 mph - N/A   Clear
10:51 PM 75.0 °F - 61.0 °F 62% 30.13 in 10.0 mi SSW 5.8 mph - N/A   Clear
11:51 PM 73.9 °F - 60.1 °F 62% 30.13 in 10.0 mi SW 4.6 mph - N/A   Clear